When you browse on this site, cookies collect data to enhance your experience and personalize the content and advertising you see.
Visit our Privacy Policy to learn more. By continuing to use the site, you agree to this use of cookies and data.
  • în România
  • Lista ţărilor
  • Pe 7 zile
  • Temperatura apei
  • Hartă satelitară
  • Meteo pe hartă
  • Widget-uri
  • user-avatar
    Intrare

    Meteo pe oră la Modliszow

    Astăzi, 22 Mai, Miercuri

    Timp Temperatura Precipitaţii Vânt Presiune Umiditate
    00:00 +12°C° 0.1 mm 3 m/s 714 mmHg 90%
    01:00 +12°C° 0 mm 4 m/s 713 mmHg 92%
    02:00 +12°C° 0.2 mm 4 m/s 714 mmHg 93%
    03:00 +12°C° 0.2 mm 5 m/s 714 mmHg 95%
    04:00 +12°C° 0.2 mm 5 m/s 714 mmHg 96%
    05:00 +12°C° 0.6 mm 5 m/s 714 mmHg 96%
    06:00 +11°C° 0.6 mm 6 m/s 714 mmHg 96%
    07:00 +13°C° 0 mm 4 m/s 714 mmHg 96%
    08:00 +12°C° 1.5 mm 5 m/s 715 mmHg 96%
    09:00 +11°C° 1.5 mm 6 m/s 715 mmHg 96%
    10:00 +11°C° 1.5 mm 7 m/s 715 mmHg 96%
    11:00 +10°C° 1 mm 7 m/s 716 mmHg 95%
    12:00 +10°C° 1 mm 7 m/s 716 mmHg 95%
    13:00 +10°C° 1 mm 7 m/s 716 mmHg 95%
    14:00 +10°C° 0.5 mm 7 m/s 717 mmHg 95%
    15:00 +9°C° 0.5 mm 7 m/s 717 mmHg 95%
    16:00 +9°C° 0.5 mm 7 m/s 717 mmHg 95%
    17:00 +9°C° 0.1 mm 7 m/s 717 mmHg 94%
    18:00 +9°C° 0.1 mm 7 m/s 718 mmHg 94%
    19:00 +9°C° 0.1 mm 7 m/s 718 mmHg 94%
    20:00 +9°C° 0.1 mm 7 m/s 718 mmHg 94%
    21:00 +9°C° 0.1 mm 6 m/s 719 mmHg 94%
    22:00 +9°C° 0.1 mm 6 m/s 719 mmHg 95%
    23:00 +9°C° 0.1 mm 6 m/s 719 mmHg 95%

    Mâine, 23 Mai, Joi

    Timp Temperatura Precipitaţii Vânt Presiune Umiditate
    00:00 +8°C° 0.1 mm 6 m/s 719 mmHg 95%
    01:00 +8°C° 0.1 mm 6 m/s 720 mmHg 95%
    02:00 +8°C° 0 mm 6 m/s 720 mmHg 95%
    03:00 +8°C° 0 mm 6 m/s 720 mmHg 95%
    04:00 +7°C° 0 mm 6 m/s 720 mmHg 95%
    05:00 +7°C° 0.1 mm 6 m/s 720 mmHg 94%
    06:00 +7°C° 0.1 mm 6 m/s 721 mmHg 94%
    07:00 +7°C° 0.1 mm 6 m/s 721 mmHg 94%
    08:00 +7°C° 0.1 mm 6 m/s 721 mmHg 93%
    09:00 +7°C° 0.1 mm 5 m/s 721 mmHg 92%
    10:00 +7°C° 0.1 mm 5 m/s 722 mmHg 91%
    11:00 +8°C° 0 mm 5 m/s 722 mmHg 83%
    12:00 +10°C° 0 mm 5 m/s 722 mmHg 74%
    13:00 +13°C° 0 mm 5 m/s 722 mmHg 66%
    14:00 +13°C° 0 mm 5 m/s 722 mmHg 66%
    15:00 +13°C° 0 mm 4 m/s 722 mmHg 66%
    16:00 +14°C° 0 mm 4 m/s 722 mmHg 65%
    17:00 +13°C° 0 mm 3 m/s 722 mmHg 68%
    18:00 +14°C° 0 mm 2 m/s 722 mmHg 72%
    19:00 +13°C° 0 mm 2 m/s 722 mmHg 75%
    20:00 +12°C° 0 mm 2 m/s 722 mmHg 76%
    21:00 +9°C° 0 mm 2 m/s 722 mmHg 77%
    22:00 +8°C° 0 mm 2 m/s 722 mmHg 78%
    23:00 +7°C° 0 mm 2 m/s 722 mmHg 80%

    Poimâine, 24 Mai, Vineri

    Timp Temperatura Precipitaţii Vânt Presiune Umiditate
    00:00 +8°C° 0 mm 1 m/s 722 mmHg 82%
    01:00 +7°C° 0 mm 1 m/s 722 mmHg 84%
    02:00 +7°C° 0 mm 1 m/s 721 mmHg 85%
    03:00 +7°C° 0 mm 1 m/s 721 mmHg 86%
    04:00 +6°C° 0 mm 1 m/s 721 mmHg 87%
    05:00 +8°C° 0 mm 1 m/s 721 mmHg 80%
    06:00 +10°C° 0 mm 1 m/s 722 mmHg 73%
    07:00 +12°C° 0 mm 1 m/s 722 mmHg 66%
    08:00 +14°C° 0 mm 2 m/s 722 mmHg 62%
    09:00 +15°C° 0 mm 2 m/s 722 mmHg 58%
    10:00 +16°C° 0 mm 2 m/s 722 mmHg 54%
    11:00 +17°C° 0 mm 2 m/s 721 mmHg 53%
    12:00 +17°C° 0 mm 2 m/s 721 mmHg 53%
    13:00 +18°C° 0 mm 2 m/s 721 mmHg 53%
    14:00 +18°C° 0 mm 2 m/s 721 mmHg 54%
    15:00 +18°C° 0 mm 2 m/s 720 mmHg 55%
    16:00 +18°C° 0 mm 2 m/s 720 mmHg 56%
    17:00 +18°C° 0 mm 1 m/s 720 mmHg 63%
    18:00 +16°C° 0 mm 1 m/s 719 mmHg 69%
    19:00 +15°C° 0 mm 1 m/s 719 mmHg 75%
    20:00 +13°C° 0 mm 1 m/s 719 mmHg 78%
    21:00 +12°C° 0 mm 1 m/s 719 mmHg 81%
    22:00 +10°C° 0 mm 2 m/s 719 mmHg 84%
    23:00 +10°C° 0 mm 2 m/s 719 mmHg 83%

    25 Mai, Sâmbătă

    Timp Temperatura Precipitaţii Vânt Presiune Umiditate
    00:00 +10°C° 0 mm 2 m/s 719 mmHg 82%
    01:00 +10°C° 0 mm 2 m/s 719 mmHg 80%
    02:00 +10°C° 0 mm 2 m/s 719 mmHg 82%
    03:00 +9°C° 0 mm 2 m/s 719 mmHg 84%
    04:00 +9°C° 0 mm 2 m/s 719 mmHg 86%
    05:00 +12°C° 0 mm 2 m/s 719 mmHg 82%
    06:00 +13°C° 0 mm 2 m/s 719 mmHg 78%
    07:00 +15°C° 0 mm 2 m/s 720 mmHg 74%
    08:00 +16°C° 0 mm 2 m/s 720 mmHg 69%
    09:00 +17°C° 0 mm 3 m/s 720 mmHg 65%
    10:00 +18°C° 0 mm 3 m/s 720 mmHg 60%
    11:00 +19°C° 0.1 mm 3 m/s 720 mmHg 60%
    12:00 +19°C° 0.1 mm 3 m/s 720 mmHg 59%
    13:00 +20°C° 0.1 mm 3 m/s 720 mmHg 59%
    14:00 +19°C° 0.2 mm 3 m/s 719 mmHg 61%
    15:00 +19°C° 0.2 mm 3 m/s 719 mmHg 64%
    16:00 +19°C° 0.2 mm 3 m/s 719 mmHg 67%
    17:00 +18°C° 0.1 mm 3 m/s 719 mmHg 71%
    18:00 +17°C° 0.1 mm 2 m/s 719 mmHg 75%
    19:00 +15°C° 0.1 mm 2 m/s 719 mmHg 79%
    20:00 +14°C° 0 mm 2 m/s 719 mmHg 81%
    21:00 +12°C° 0 mm 2 m/s 719 mmHg 84%
    22:00 +11°C° 0 mm 1 m/s 719 mmHg 86%
    23:00 +10°C° 0 mm 1 m/s 719 mmHg 88%

    26 Mai, Duminică

    Timp Temperatura Precipitaţii Vânt Presiune Umiditate
    00:00 +9°C° 0 mm 1 m/s 719 mmHg 90%
    01:00 +9°C° 0 mm 1 m/s 719 mmHg 92%
    02:00 +8°C° 0 mm 1 m/s 719 mmHg 93%
    03:00 +8°C° 0 mm 1 m/s 719 mmHg 93%
    04:00 +8°C° 0 mm 1 m/s 719 mmHg 93%
    05:00 +8°C° 0 mm 2 m/s 719 mmHg 89%
    06:00 +10°C° 0 mm 3 m/s 719 mmHg 84%
    07:00 +11°C° 0 mm 3 m/s 719 mmHg 79%
    08:00 +12°C° 0 mm 4 m/s 719 mmHg 72%
    09:00 +13°C° 0 mm 4 m/s 719 mmHg 65%
    10:00 +14°C° 0 mm 4 m/s 719 mmHg 58%
    11:00 +15°C° 0 mm 5 m/s 719 mmHg 57%
    12:00 +15°C° 0 mm 5 m/s 719 mmHg 56%
    13:00 +15°C° 0 mm 6 m/s 719 mmHg 55%
    14:00 +15°C° 0 mm 6 m/s 719 mmHg 56%
    15:00 +15°C° 0 mm 6 m/s 719 mmHg 56%
    16:00 +15°C° 0 mm 7 m/s 718 mmHg 57%
    17:00 +14°C° 0 mm 5 m/s 718 mmHg 64%
    18:00 +13°C° 0 mm 4 m/s 718 mmHg 70%
    19:00 +11°C° 0 mm 3 m/s 718 mmHg 77%
    20:00 +10°C° 0 mm 3 m/s 718 mmHg 82%
    21:00 +9°C° 0 mm 2 m/s 719 mmHg 86%
    22:00 +8°C° 0 mm 2 m/s 719 mmHg 91%
    23:00 +7°C° 0 mm 2 m/s 719 mmHg 92%

    27 Mai, Luni

    Timp Temperatura Precipitaţii Vânt Presiune Umiditate
    00:00 +7°C° 0 mm 2 m/s 719 mmHg 93%
    01:00 +6°C° 0 mm 2 m/s 719 mmHg 94%
    02:00 +7°C° 0 mm 1 m/s 719 mmHg 93%
    03:00 +7°C° 0 mm 1 m/s 719 mmHg 93%
    04:00 +7°C° 0 mm 1 m/s 719 mmHg 92%
    05:00 +9°C° 0 mm 1 m/s 719 mmHg 87%
    06:00 +11°C° 0 mm 1 m/s 719 mmHg 82%
    07:00 +13°C° 0 mm 2 m/s 719 mmHg 77%
    08:00 +14°C° 0 mm 2 m/s 718 mmHg 73%
    09:00 +16°C° 0 mm 3 m/s 718 mmHg 68%
    10:00 +18°C° 0 mm 3 m/s 718 mmHg 63%
    11:00 +19°C° 0 mm 3 m/s 718 mmHg 61%
    12:00 +20°C° 0 mm 3 m/s 718 mmHg 59%
    13:00 +20°C° 0 mm 3 m/s 717 mmHg 57%
    14:00 +21°C° 0.1 mm 3 m/s 717 mmHg 59%
    15:00 +21°C° 0.1 mm 3 m/s 716 mmHg 61%
    16:00 +21°C° 0.1 mm 4 m/s 716 mmHg 63%
    17:00 +19°C° 0.6 mm 3 m/s 715 mmHg 70%
    18:00 +18°C° 0.6 mm 3 m/s 715 mmHg 77%
    19:00 +17°C° 0.6 mm 2 m/s 715 mmHg 85%
    20:00 +15°C° 0.8 mm 2 m/s 714 mmHg 87%
    21:00 +14°C° 0.8 mm 2 m/s 714 mmHg 90%
    22:00 +13°C° 0.8 mm 2 m/s 714 mmHg 93%
    23:00 +13°C° 0.6 mm 2 m/s 714 mmHg 93%
    Arată mai mult